Zurück zum Katalog

CZ-2C DEB

AktivSSO
NORAD 39225·DEBRIS·🇨🇳 China

Gestartet Jul 15, 2013 von Jiuquan Satellite Launch Center

Loading…

Nächste Überflüge (nächste 24 Stunden)

TLE

AktuellSource: Space-Track

Epoche: Sep 14, 2026, 12:16 UTC

1 39225U 13035F   26257.51162709  .00001278  00000-0  40706-3 0  9994
2 39225  98.2410 269.0777 0158166  96.2612 265.6616 14.34499068679842

Verfolge CZ-2C DEB in Echtzeit mit AllMySat

Download on the App Store